Location: Bremen
(53.0833°N, 8.8000°E)
Time: 14:28:44
(UTC+02:00)

ISS - Pass Details

Date: 25 April 2025
Orbit: 416 x 419 km, 51.6° (Epoch: 14 May)

Event Time Altitude Azimuth Distance (km) Brightness Sun altitude
Exits shadow 05:17:38 - 228° (SW) 1,566 -1.5 -6.9°
Reaches altitude 10° 05:17:49 10° 227° (SW) 1,492 -1.6 -6.9°
Maximum altitude 05:20:57 38° 158° (SSE) 652 -2.9 -6.5°
Drops below altitude 10° 05:24:07 10° 88° (E) 1,499 0.1 -6.1°
Sets 05:26:17 0° 81° (E) 2,366 1.6 -5.8°
